Tracking 19476 objects as of 17-Jan-2019
HD Live streaming from Space Station
objects crossing your sky now

EKRAN 16

Track EKRAN 16 now!
EKRAN 16 is classified as:


NORAD ID: 18328
Int'l Code: 1987-073A
Perigee: 36,875.9 km
Apogee: 36,904.5 km
Inclination: 15.7 °
Period: 1,492.5 minutes
Semi major axis: 43261 km
RCS: 5.9402 m2 (large)
Launch date: September 3, 1987
Source: Commonwealth of Independent States (former USSR) (CIS)
Launch site: TYURATAM MISSILE AND SPACE COMPLEX (TTMTR)
aabbcc
Your satellite tracking list
Your tracking list is empty




NASA's NSSDC Master Catalog

Two Line Element Set (TLE):
1 18328U 87073A   19016.48523184 -.00000074  00000-0  00000+0 0  9990
2 18328  15.7055 349.0136 0003308 316.4783  33.6429  0.96483835110879
Source of the keplerian elements: AFSPC